TimeMST,TemperatureF,Dew PointF,Humidity,Sea Level PressureIn,VisibilityMPH,Wind Direction,Wind SpeedMPH,Gust SpeedMPH,PrecipitationIn,Events,Conditions,WindDirDegrees,DateUTC
12:53 AM,30.0,10.9,45,29.80,10.0,SW,8.1,-,N/A,,Clear,230,2012-12-14 07:53:00
1:53 AM,28.9,10.9,47,29.79,10.0,West,5.8,-,N/A,,Clear,270,2012-12-14 08:53:00
2:53 AM,25.0,10.9,55,29.79,10.0,NW,6.9,-,N/A,,Clear,320,2012-12-14 09:53:00
3:53 AM,24.1,10.9,57,29.79,10.0,WSW,8.1,-,N/A,,Clear,250,2012-12-14 10:53:00
4:53 AM,27.0,12.0,53,29.77,10.0,WSW,8.1,-,N/A,,Clear,250,2012-12-14 11:53:00
5:53 AM,27.0,12.0,53,29.77,10.0,SW,10.4,-,N/A,,Clear,230,2012-12-14 12:53:00
6:53 AM,27.0,12.0,53,29.76,10.0,WSW,9.2,-,N/A,,Clear,250,2012-12-14 13:53:00
7:53 AM,25.0,10.9,55,29.76,10.0,Variable,5.8,-,N/A,,Clear,0,2012-12-14 14:53:00
8:53 AM,26.1,12.9,58,29.77,10.0,West,3.5,-,N/A,,Clear,280,2012-12-14 15:53:00
9:53 AM,30.0,14.0,51,29.74,10.0,Calm,Calm,-,N/A,,Clear,0,2012-12-14 16:53:00
10:53 AM,33.1,14.0,46,29.70,10.0,South,3.5,-,N/A,,Clear,190,2012-12-14 17:53:00
11:53 AM,39.0,14.0,36,29.64,10.0,Calm,Calm,-,N/A,,Clear,0,2012-12-14 18:53:00
12:53 PM,41.0,14.0,33,29.59,10.0,Calm,Calm,-,N/A,,Clear,0,2012-12-14 19:53:00
1:53 PM,43.0,15.1,32,29.56,10.0,Calm,Calm,-,N/A,,Clear,0,2012-12-14 20:53:00
2:53 PM,42.1,15.1,34,29.57,10.0,ESE,8.1,-,N/A,,Scattered Clouds,120,2012-12-14 21:53:00
3:53 PM,37.0,14.0,39,29.59,10.0,North,3.5,-,N/A,,Clear,360,2012-12-14 22:53:00
4:53 PM,32.0,14.0,48,29.60,10.0,NW,6.9,-,N/A,,Clear,310,2012-12-14 23:53:00
5:53 PM,27.0,12.9,56,29.63,10.0,NNW,5.8,-,N/A,,Clear,330,2012-12-15 00:53:00
6:53 PM,25.0,12.9,60,29.64,10.0,West,4.6,-,N/A,,Clear,280,2012-12-15 01:53:00
7:53 PM,21.9,12.0,66,29.67,10.0,WNW,4.6,-,N/A,,Clear,290,2012-12-15 02:53:00
8:53 PM,23.0,12.0,63,29.68,10.0,West,4.6,-,N/A,,Clear,260,2012-12-15 03:53:00
9:53 PM,23.0,12.0,63,29.67,10.0,West,8.1,-,N/A,,Scattered Clouds,270,2012-12-15 04:53:00
10:53 PM,23.0,12.9,65,29.68,10.0,WSW,8.1,-,N/A,,Overcast,250,2012-12-15 05:53:00
11:53 PM,27.0,14.0,58,29.67,10.0,West,4.6,-,N/A,,Mostly Cloudy,270,2012-12-15 06:53:00